Regional Weather Roundup
Issued by NWS Sioux Falls, SD

Home | Current Version | Previous Version | Graphics & Text | Print | Product List | Glossary Off
Versions: 1 2 3 4 5 6 7 8 9 10 11 12 13 14 15 16 17 18 19 20 21 22 23 24 25 26 27 28 29 30 31 32 33 34 35 36 37 38 39 40 41 42 43 44 45 46 47 48 49 50

000
ASUS43 KFSD 291510
RWRFSD

WEATHER ROUNDUP FOR SE SOUTH DAKOTA/SW MINNESOTA/NW IOWA
NATIONAL WEATHER SERVICE SIOUX FALLS SD
1000 AM CDT FRI AUG 29 2014

NOTE: "FAIR" INDICATES FEW OR NO CLOUDS BELOW 12,000 FEET WITH NO
SIGNIFICANT WEATHER AND OR OBSTRUCTIONS TO VISIBILITY.


SDZ038>040-050-052>070-291600-
SOUTHEAST SOUTH DAKOTA

CITY           SKY/WX    TMP DP  RH WIND       PRES   REMARKS
CHAMBERLAIN    CLOUDY    66  65  96 NW8       29.83S
HURON          CLOUDY    69  67  93 NW9       29.79R
MADISON        CLOUDY    68  68 100 N6        29.80S
MITCHELL       CLOUDY    70  69  97 W6        29.80R FOG
SIOUX FALLS    CLOUDY    70  68  93 S5        29.79S
WINNER         FAIR      71  64  78 NW6       29.85S
YANKTON        CLOUDY    70  68  94 W6        29.79F
$$

MNZ071-072-080-081-089-090-097-098-291600-
SOUTHWEST MINNESOTA

CITY           SKY/WX    TMP DP  RH WIND       PRES   REMARKS
FAIRMONT       CLOUDY    70  64  83 S8        29.81S
JACKSON        CLOUDY    72  64  78 S10G17    29.82S
LUVERNE        CLOUDY    72  68  88 SW5       29.80S FOG
MARSHALL       CLOUDY    70  66  88 N6        29.78R
MONTEVIDEO     CLOUDY    68  68 100 N5        29.79R
PIPESTONE      CLOUDY    70  68  94 SW6       29.80S
REDWOOD FALLS  CLOUDY    73  68  84 SW10      29.78R
TRACY          CLOUDY    73  70  89 SW8       29.80R FOG
WINDOM         CLOUDY    72  66  83 S12       29.81R
WORTHINGTON    CLOUDY    70  66  88 S10       29.82S
$$

IAZ001>003-012>014-020>022-031-032-NEZ013-014-SDZ071-291600-
NORTHWEST IOWA

CITY           SKY/WX    TMP DP  RH WIND       PRES   REMARKS
DENISON        CLOUDY    70  70 100 SE5       29.81S
ESTHERVILLE    CLOUDY    70  66  87 S14       29.82R
LE MARS        CLOUDY    72  70  94 S9        29.81S
ORANGE CITY    CLOUDY    72  68  88 S7        29.81S
SHELDON        CLOUDY    70  70 100 S12       29.80S
SIOUX CITY     LGT RAIN  72  70  93 S5        29.79F FOG
SPENCER        CLOUDY    70  66  87 S10       29.82R
STORM LAKE     CLOUDY    68  68 100 S10       29.83F FOG
$$

ABBREVIATIONS USED IN REMARKS
   TC - TEMPERATURE IN CELSIUS
  WCI - WIND CHILL INDEX
   HX - HEAT INDEX
  VSB - VISIBILITY



USA.gov is the U.S. government's official web portal to all federal, state and local government web resources and services.